Location: San Gennaro Vesuviano
(40.8833°N, 14.5333°E)
Time: 21:00:24
(UTC+00:00)

Cosmos 1408 - Pass Details

Date: 22 April 2021
Orbit: 467 x 493 km, 82.6° (Epoch: 10 May)

Event Time Altitude Azimuth Distance (km) Brightness Sun altitude
Rises 18:28:18 0° 351° (N) 2,513 6.7 -7.8°
Reaches altitude 10° 18:30:24 10° 350° (N) 1,631 5.7 -8.1°
Maximum altitude 18:33:57 81° 265° (W) 479 2.6 -8.7°
Drops below altitude 10° 18:37:29 10° 177° (S) 1,621 4.9 -9.4°
Sets 18:39:34 0° 176° (S) 2,495 5.9 -9.7°
